Tracking 28790 objects as of 19-Apr-2024
HD Live streaming from Space Station
objects crossing your sky now

ARIANE 5 DEB (SYLDA)

Track ARIANE 5 DEB (SYLDA) now!
10-day predictions


NORAD ID: 54744
Int'l Code: 2022-170D
Perigee: 257.7 km
Apogee: 20,917.4 km
Inclination: 6.3 °
Period: 366.3 minutes
Semi major axis: 16958 km
RCS: Unknown
Launch date: December 13, 2022
Source: France (FR)
Launch site: FRENCH GUIANA (FRGUI)

Note: This is SATELLITE DEBRIS
Your satellite tracking list
Your tracking list is empty




NASA's NSSDC Master Catalog

Two Line Element Set (TLE):
1 54744U 22170D   24110.06891023  .00072785  00000-0  85400-2 0  9991
2 54744   6.2832 282.4213 6091237  42.3138 351.2887  3.93115299 14863
Source of the keplerian elements: AFSPC